Home   Weather   Sevierville   Past weeks

Flag for USA Past Weather in Sevierville, Tennessee, USA — Yesterday and Last 2 Weeks

Now
68 °F

Rain. Mostly cloudy.


Feels Like: 68 °F
Forecast: 60 / 74 °F
Wind: 16 mph from South

Location: McGhee Tyson Airport

Current Time: May 1, 2017 at 12:41:57 am

Latest Report: Apr 30, 2017 at 11:53 pm


Visibility: 4 mi

Pressure: 29.90 "Hg

Humidity: 84%

Dew Point: 63 °F

Location of SeviervilleLocation

Past Weather in Sevierville — Graph

°F

Sevierville Temperature Yesterday

Maximum temperature yesterday: 83 °F (at 12:53 pm)
Minimum temperature yesterday: 68 °F (at 10:53 pm)
Average temperature yesterday: 76 °F

High & Low Weather Summary for the Past Weeks

 TemperatureHumidityPressure
High89 °F (Apr 29, 4:53 pm)97% (Apr 17, 11:53 pm)30.27 "Hg (Apr 17, 11:53 pm)
Low52 °F (Apr 24, 6:53 am)29% (Apr 16, 5:53 pm)29.65 "Hg (Apr 26, 7:53 pm)
Average67 °F75%29.94 "Hg
* Reported Apr 15 10:53 pm — Apr 30 10:53 pm, Sevierville, Weather by CustomWeather, © 2017

Note: Actual official high and low records may vary slightly from our data, if they occured in-between our weather recording intervals... More about our weather records

Advertising

Sevierville Weather History for the Previous 24 Hours

Scroll right to see more
 ConditionsComfort  
Time TempWeatherWind HumidityBarometerVisibility
10:53 pm
Sun, Apr 30
68 °FMostly cloudy.9 mph78%29.93 "Hg10 mi
9:53 pm69 °FMostly cloudy.10 mph76%29.95 "Hg10 mi
9:00 pm73 °FMostly cloudy.16 mph64%29.97 "Hg10 mi
7:53 pm80 °FCloudy.15 mph44%29.90 "Hg10 mi
6:53 pm81 °FMore clouds than sun.17 mph41%29.91 "Hg10 mi
5:53 pm83 °FMore clouds than sun.17 mph37%29.92 "Hg10 mi
4:53 pm83 °FOvercast.8 mph38%29.92 "Hg10 mi
3:53 pm83 °FOvercast.14 mph40%29.95 "Hg10 mi
1:53 pm82 °FScattered clouds.10 mph46%29.99 "Hg10 mi
12:53 pm83 °FBroken clouds.15 mph43%30.02 "Hg10 mi
11:53 am80 °FMore clouds than sun.15 mph51%30.02 "Hg10 mi
10:53 am78 °FCloudy.15 mph62%30.03 "Hg10 mi
9:53 am77 °FHigh level clouds.13 mph64%30.01 "Hg10 mi
8:53 am78 °FHigh level clouds.20 mph58%29.97 "Hg10 mi
7:53 am76 °FBroken clouds.6 mph62%29.95 "Hg10 mi
6:53 am71 °FBroken clouds.7 mph68%29.97 "Hg10 mi
5:53 am72 °FPassing clouds.5 mph66%29.97 "Hg10 mi
4:53 am71 °FPassing clouds.6 mph73%29.97 "Hg10 mi
3:53 am72 °FPassing clouds.3 mph68%29.97 "Hg10 mi
2:53 am72 °FPassing clouds.6 mph71%29.99 "Hg10 mi
1:53 am75 °FPassing clouds.10 mph64%30.00 "Hg10 mi
12:53 am75 °FPassing clouds.9 mph64%30.01 "Hg10 mi
Weather by CustomWeather, © 2017

See weather overviewHow to use our weather pages